Location: Unspecified
(0.0000°N, 0.0000°E)
Time: 22:09:40
(UTC+02:00)

Haruka - Pass Details

Date: 28 June 2018
Orbit: 538 x 21218 km, 31.3° (Epoch: 20 July)

Event Time Altitude Azimuth Distance (km) Brightness Sun altitude
Exits shadow 06:34:37 22° 241° (WSW) 10,389 8.1 -20.3°
Maximum altitude 08:04:49 67° 290° (WNW) 19,780 10.0 0.4°
Drops below altitude 10° 11:40:38 10° 50° (NE) 8,469 9.3 48.3°
Sets 11:45:20 0° 57° (ENE) 8,270 8.9 49.2°
